FW8865 Weather Reports


time (UTC)temp
F
wind
direction
speed
knots
gust
knots
rain 1hr
in
rain 24hr
in
rain mn
in
humidity
%
barometer
mb
20260508075216 51 0.0 0.0 0.00 0.00 0.00 27 1007.1
20260508074216 52 0.0 0.0 0.00 0.00 0.00 26 1006.9
20260508073216 53 0.0 0.0 0.00 0.00 0.00 26 1006.9
20260508072216 53 0.0 0.0 0.00 0.00 0.00 26 1007.1
20260508071216 54 0.0 0.0 0.00 0.00 0.00 24 1006.7
20260508070216 55 0.0 0.0 0.00 0.00 0.00 24 1006.8
20260508065216 55 0.0 0.0 0.00 0.00 0.00 24 1007.8
20260508064217 55 0.0 1.7 0.00 0.00 0.00 23 1007.6
20260508063216 55 0.0 0.9 0.00 0.00 0.00 23 1007.6
20260508062216 56 0.0 0.9 0.00 0.00 0.00 22 1007.2
20260508061216 57 0.0 0.0 0.00 0.00 0.00 22 1007.0
20260508060216 58 248 0.9 1.7 0.00 0.00 0.00 21 1007.0
20260508055216 58 248 0.9 2.6 0.00 0.00 0.00 21 1007.3
20260508054216 59 248 0.9 2.6 0.00 0.00 0.00 20 1006.8
20260508053216 58 270 0.9 1.7 0.00 0.00 0.00 20 1006.8
20260508052236 57 248 1.7 2.6 0.00 0.00 0.00 21 1006.7
20260508051216 57 248 0.9 1.7 0.00 0.00 0.00 21 1006.4
20260508050216 57 248 0.9 1.7 0.00 0.00 0.00 21 1006.1
20260508045216 59 270 0.9 1.7 0.00 0.00 0.00 20 1007.0
20260508044216 62 0.0 0.9 0.00 0.00 0.00 19 1006.6
20260508043216 62 270 1.7 1.7 0.00 0.00 0.00 19 1007.0
20260508042216 63 270 0.9 1.7 0.00 0.00 0.00 18 1006.6
20260508041216 63 270 1.7 1.7 0.00 0.00 0.00 18 1006.2
20260508040216 64 293 0.9 1.7 0.00 0.00 0.00 17 1006.2
20260508035216 65 293 1.7 3.5 0.00 0.00 0.00 17 1006.9
20260508034216 65 270 1.7 3.5 0.00 0.00 0.00 17 1006.4
20260508033216 65 293 1.7 2.6 0.00 0.00 0.00 16 1006.3
20260508032216 66 270 1.7 2.6 0.00 0.00 0.00 16 1006.2
20260508031236 66 270 1.7 2.6 0.00 0.00 0.00 16 1005.6
20260508030216 67 293 1.7 2.6 0.00 0.00 0.00 15 1005.5
20260508025236 67 293 1.7 2.6 0.00 0.00 0.00 15 1006.4
20260508024218 68 293 1.7 3.5 0.00 0.00 0.00 14 1005.6
20260508023218 68 293 1.7 2.6 0.00 0.00 0.00 14 1005.4
20260508022218 69 293 1.7 2.6 0.00 0.00 0.00 13 1005.5
20260508021218 69 293 1.7 2.6 0.00 0.00 0.00 13 1005.3
20260508020218 70 293 1.7 2.6 0.00 0.00 0.00 13 1005.1
20260508015218 71 293 1.7 2.6 0.00 0.00 0.00 12 1005.4
20260508014218 72 293 2.6 4.3 0.00 0.00 0.00 12 1005.3
20260508013238 73 293 2.6 3.5 0.00 0.00 0.00 12 1004.8
20260508012217 74 293 1.7 1.7 0.00 0.00 0.00 12 1004.8
20260508011217 74 270 1.7 3.5 0.00 0.00 0.00 13 1004.4
20260508010238 75 23 0.9 2.6 0.00 0.00 0.00 12 1004.0
20260508005219 74 338 0.9 2.6 0.00 0.00 0.00 13 1005.0
20260508004217 75 90 2.6 3.5 0.00 0.00 0.00 14 1004.9
20260508003217 75 0.0 1.7 0.00 0.00 0.00 13 1005.3
20260508002217 75 45 0.9 1.7 0.00 0.00 0.00 13 1005.0
20260508001237 75 0.0 1.7 0.00 0.00 0.00 13 1005.2
20260508000219 76 248 2.6 3.5 0.00 0.00 0.00 13 1004.9
20260507235217 76 225 1.7 3.5 0.00 0.00 0.00 13 1005.3
20260507234217 75 225 1.7 3.5 0.00 0.00 0.00 14 1005.3
20260507233217 75 0.0 0.9 0.00 0.00 0.00 13 1005.4
20260507232217 75 225 1.7 3.5 0.00 0.00 0.00 14 1005.5
20260507231217 76 270 0.9 1.7 0.00 0.00 0.00 13 1006.0
20260507230217 75 248 2.6 4.3 0.00 0.00 0.00 15 1005.7
20260507225217 75 135 0.9 2.6 0.00 0.00 0.00 15 1005.8
20260507224217 75 0.0 1.7 0.00 0.00 0.00 14 1006.0
20260507223219 74 225 0.9 2.6 0.00 0.00 0.00 13 1006.0
20260507222217 75 0.0 1.7 0.00 0.00 0.00 13 1006.2
20260507221217 75 203 0.9 1.7 0.00 0.00 0.00 13 1006.5
20260507220217 75 135 1.7 2.6 0.00 0.00 0.00 14 1006.7
20260507215217 75 270 0.9 2.6 0.00 0.00 0.00 14 1006.6
20260507214217 74 270 1.7 3.5 0.00 0.00 0.00 14 1006.8
20260507213217 73 203 1.7 2.6 0.00 0.00 0.00 14 1007.3
20260507212217 73 203 2.6 3.5 0.00 0.00 0.00 15 1007.3
20260507211217 73 203 1.7 2.6 0.00 0.00 0.00 16 1007.8
20260507210216 72 248 1.7 2.6 0.00 0.00 0.00 18 1007.7
20260507205217 71 135 1.7 3.5 0.00 0.00 0.00 19 1007.9
20260507204237 71 180 1.7 3.5 0.00 0.00 0.00 19 1008.0
20260507203216 70 135 1.7 2.6 0.00 0.00 0.00 19 1008.2
20260507202216 70 135 2.6 6.1 0.00 0.00 0.00 21 1008.4
20260507201217 69 0.0 0.9 0.00 0.00 0.00 21 1008.7
20260507200217 70 90 2.6 3.5 0.00 0.00 0.00 21 1009.0
20260507195217 69 158 1.7 3.5 0.00 0.00 0.00 21 1008.5
20260507194216 68 158 0.9 2.6 0.00 0.00 0.00 22 1008.8
20260507193216 68 135 1.7 2.6 0.00 0.00 0.00 23 1009.3
20260507192217 66 135 1.7 3.5 0.00 0.00 0.00 24 1009.5
20260507191216 66 203 3.5 6.1 0.00 0.00 0.00 25 1009.6
20260507190236 65 113 0.9 2.6 0.00 0.00 0.00 26 1010.2
20260507185216 64 113 0.9 2.6 0.00 0.00 0.00 26 1010.1
20260507184217 64 135 1.7 3.5 0.00 0.00 0.00 27 1010.1
20260507183216 64 180 0.9 1.7 0.00 0.00 0.00 26 1010.1
20260507182217 63 135 0.9 2.6 0.00 0.00 0.00 26 1010.6
20260507181216 63 135 1.7 2.6 0.00 0.00 0.00 27 1010.8
20260507180216 62 45 0.9 0.9 0.00 0.00 0.00 27 1011.1
20260507175216 61 338 1.7 2.6 0.00 0.00 0.00 30 1011.2
20260507174216 60 23 0.9 1.7 0.00 0.00 0.00 30 1011.4
20260507173216 60 90 1.7 2.6 0.00 0.00 0.00 30 1011.5
20260507172219 59 225 0.9 1.7 0.00 0.00 0.00 32 1011.7
20260507171216 58 90 1.7 2.6 0.00 0.00 0.00 35 1012.0
20260507170216 57 90 0.9 1.7 0.00 0.00 0.00 35 1012.4
20260507165216 57 68 2.6 3.5 0.00 0.00 0.00 35 1012.4
20260507164236 56 23 0.9 1.7 0.00 0.00 0.00 38 1012.3
20260507163236 56 68 1.7 2.6 0.00 0.00 0.00 41 1012.7
20260507162216 55 45 2.6 3.5 0.00 0.00 0.00 41 1013.1
20260507161216 54 68 1.7 3.5 0.00 0.00 0.00 44 1012.9
20260507160216 53 68 2.6 3.5 0.00 0.00 0.00 45 1013.3
20260507155216 52 68 3.5 4.3 0.00 0.00 0.00 47 1013.0
20260507154216 51 45 2.6 3.5 0.00 0.00 0.00 49 1012.7
20260507153217 51 45 1.7 3.5 0.00 0.00 0.00 51 1013.2
20260507152216 50 68 2.6 2.6 0.00 0.00 0.00 51 1013.3
20260507151216 49 45 1.7 2.6 0.00 0.00 0.00 53 1013.3
20260507150236 48 23 1.7 2.6 0.00 0.00 0.00 58 1013.7
20260507145215 48 45 2.6 3.5 0.00 0.00 0.00 56 1013.0
20260507144217 47 23 0.9 3.5 0.00 0.00 0.00 58 1013.5
20260507143217 47 23 2.6 3.5 0.00 0.00 0.00 59 1013.6
20260507142217 46 23 1.7 3.5 0.00 0.00 0.00 61 1013.6
20260507141218 44 23 2.6 3.5 0.00 0.00 0.00 63 1013.7
20260507140217 45 45 2.6 3.5 0.00 0.00 0.00 62 1014.2
20260507135218 44 0 0.9 2.6 0.00 0.00 0.00 62 1013.5
20260507134217 44 23 1.7 2.6 0.00 0.00 0.00 62 1013.6
20260507133217 43 0 0.9 3.5 0.00 0.00 0.00 61 1014.2
20260507132237 43 315 0.9 2.6 0.00 0.00 0.00 58 1014.0
20260507131217 42 23 0.9 2.6 0.00 0.00 0.00 59 1013.7
20260507130217 41 338 0.9 1.7 0.00 0.00 0.00 63 1013.7
20260507125217 40 0 0.9 0.9 0.00 0.00 0.00 68 1013.1
20260507124217 40 0.0 0.9 0.00 0.00 0.00 70 1012.8
20260507123217 39 0.0 0.9 0.00 0.00 0.00 70 1013.1
20260507122217 39 0.0 0.9 0.00 0.00 0.00 70 1012.9
20260507121237 39 0.0 0.9 0.00 0.00 0.00 69 1012.7
20260507120238 39 0.0 0.9 0.00 0.00 0.00 69 1013.1
20260507115217 39 0.0 1.7 0.00 0.00 0.00 67 1013.0
20260507114217 39 0.0 1.7 0.00 0.00 0.00 66 1013.0
20260507113237 40 315 0.9 1.7 0.00 0.00 0.00 65 1013.4
20260507112217 40 315 1.7 2.6 0.00 0.00 0.00 64 1013.3
20260507111217 40 315 0.9 2.6 0.00 0.00 0.00 63 1013.5
20260507110217 40 315 1.7 2.6 0.00 0.00 0.00 61 1012.9
20260507105217 40 315 0.9 2.6 0.00 0.00 0.00 59 1012.1
20260507104217 40 293 1.7 2.6 0.00 0.00 0.00 56 1012.1
20260507103217 41 315 0.9 2.6 0.00 0.00 0.00 55 1012.5
20260507102218 41 315 1.7 2.6 0.00 0.00 0.00 53 1012.4
20260507101217 41 315 0.9 1.7 0.00 0.00 0.00 52 1012.5
20260507100217 42 293 1.7 2.6 0.00 0.00 0.00 47 1012.8
20260507095257 42 315 1.7 2.6 0.00 0.00 0.00 46 1012.7
20260507094237 42 315 1.7 3.5 0.00 0.00 0.00 44 1012.8
20260507093238 43 0.0 0.9 0.00 0.00 0.00 42 1012.7
20260507092318 43 315 0.9 1.7 0.00 0.00 0.00 40 1012.6
20260507091217 43 0.0 0.9 0.00 0.00 0.00 39 1012.7
20260507090217 44 315 0.9 1.7 0.00 0.00 0.00 38 1012.7
20260507085217 43 315 0.9 1.7 0.00 0.00 0.00 39 1011.9
20260507084216 43 338 0.9 0.9 0.00 0.00 0.00 39 1011.9
20260507083219 44 338 0.9 1.7 0.00 0.00 0.00 39 1011.8
20260507082216 44 0.0 0.9 0.00 0.00 0.00 38 1012.1
20260507081236 44 0 0.9 2.6 0.00 0.00 0.00 38 1012.1
20260507080217 48 293 0.9 1.7 0.00 0.00 0.00 33 1011.4